Capri, Italy

7:28 PM CEST on May 23, 2018 (GMT +0200)
Capri

Weather History for LIQC - October, 2013

Change the Weather History Date:

Thursday, October 3, 2013

  Actual Average (LIRN) Record (LIRN)
Temperature  
Mean Temperature 71 °F -  
Max Temperature 80 °F 73 °F 84 °F (2011)
Min Temperature 62 °F 58 °F 53 °F (2002)
Cooling Degree Days 6    
Growing Degree Days 21 (Base 50)    
Moisture  
Dew Point 50 °F    
Average Humidity 52    
Maximum Humidity 68    
Minimum Humidity 24    
Precipitation  
Precipitation 0.00 in - - ()
Sea Level Pressure  
Sea Level Pressure 30.15 in    
Wind  
Wind Speed 4 mph ()    
Max Wind Speed 7 mph    
Max Gust Speed -    
Visibility 12.0 miles    
Events      
Averages and records for this station are not official NWS values.
T = Trace of Precipitation, MM = Missing Value Source: Averaged Metar Reports

Daily Weather History Graph

Daily Weather History Graph

Search for Another Location

Airport or City:

Astronomy

Oct. 03, 2013 Rise Set
Actual Time 7:01 AM CEST 6:42 PM CEST
Civil Twilight 6:34 AM CEST 7:09 PM CEST
Nautical Twilight 6:02 AM CEST 7:40 PM CEST
Astronomical Twilight 5:30 AM CEST 8:12 PM CEST
Moon 5:17 AM CEST (10/3) 5:41 PM CEST (10/3)
Length of Visible Light 12h 34m
Length of Day
11h 40m
Waning Crescent, 3% of the Moon is Illuminated
Oct 3
Waning Crescent
Oct 5
New
Oct 12
First Quarter
Oct 19
Full
Oct 27
Last Quarter

Hourly Weather History & Observations

Time (CEST) Temp. Dew Point Humidity Pressure Visibility Wind Dir Wind Speed Gust Speed Precip Events Conditions
12:55 AM 66.2 °F 53.6 °F 64% 30.04 in - North - - N/A   Clear
1:55 AM 66.2 °F 53.6 °F 64% 30.06 in - North - - N/A   Clear
2:00 AM 66 °F 54 °F 56% 30.06 in 12 mi 5.8 mph - -  
2:55 AM 66.2 °F 55.4 °F 68% 30.06 in - North - - N/A   Clear
5:00 AM 63 °F 54 °F 65% 30.08 in 12 mi 3.5 mph - -  
6:55 AM 62.6 °F 50.0 °F 63% 30.09 in - North - - N/A   Clear
7:55 AM 62.6 °F 50.0 °F 63% 30.09 in - North - - N/A   Clear
8:00 AM 63 °F 51 °F 54% 30.12 in 12 mi 2.3 mph - -  
8:55 AM 64.4 °F 50.0 °F 59% 30.12 in - North - - N/A   Clear
9:55 AM 66.2 °F 50.0 °F 56% 30.12 in - North - - N/A   Clear
10:55 AM 66.2 °F 50.0 °F 56% 30.15 in - North - - N/A   Clear
11:00 AM 67 °F 49 °F 43% 30.16 in 12 mi North 5.8 mph - -   Clear
11:55 AM 68.0 °F 46.4 °F 46% 30.15 in - North - - N/A   Clear
12:55 PM 68.0 °F 48.2 °F 49% 30.15 in - North - - N/A   Clear
1:55 PM 69.8 °F 46.4 °F 43% 30.18 in - North - - N/A   Clear
2:00 PM 69 °F 46 °F 33% 30.17 in 12 mi North 6.9 mph - -   Clear
2:55 PM 69.8 °F 46.4 °F 43% 30.18 in - North - - N/A   Clear
3:55 PM 78.8 °F 50.0 °F 36% 30.18 in - North - - N/A   Clear
4:55 PM 78.8 °F 50.0 °F 36% 30.18 in - North - - N/A   Clear
5:00 PM 80 °F 49 °F 24% 30.17 in 12 mi 4.6 mph - -   Clear
5:55 PM 75.2 °F 50.0 °F 41% 30.18 in - North - - N/A   Clear
6:55 PM 66.2 °F 50.0 °F 56% 30.18 in - North - - N/A   Clear
7:55 PM 66.2 °F 50.0 °F 56% 30.18 in - North - - N/A   Clear
8:00 PM 66 °F 50 °F 46% 30.20 in 12 mi 3.5 mph - -  
8:55 PM 64.4 °F 53.6 °F 68% 30.21 in - North - - N/A   Clear
9:55 PM 64.4 °F 48.2 °F 56% 30.21 in - North - - N/A   Clear
10:55 PM 64.4 °F 48.2 °F 56% 30.21 in - North - - N/A   Clear
11:00 PM 65 °F 49 °F 45% 30.23 in 12 mi 5.8 mph - -